• Join FlightAware (Why Join?)
  • Login
  • US Flag 
11:14AM EDT


 

Airport Tracker/Info


-or-


 

Live Flight TrackerFlight Track Log ✈ HAL351 ✈ 24-Apr-2013 ✈ PHTO / ITO - PHNL

Flight Track Log - Related Links

Times and Time Zones

All times are in EDT time to prevent confusion due to time zone crossing. See the HAL351 flight status page for this flight to view local times or setup timezone preferences in your user account.

Time Position Orientation Groundspeed Altitude Reporting Facility
EDT Latitude Longitude Course Direction KTS MPH feet Rate Location/Type
12:51PM 19.7167 -155.0500 285° West 160 184 900  Level Honolulu Center
12:52PM 19.7667 -155.0667 343° North 220 253 2,400 1,980 Climbing Honolulu Center
12:53PM 19.8333 -155.0500 13° North 270 311 4,900 2,520 Climbing Honolulu Center
12:54PM 19.9787 -155.2215 325° Northwest  Level FlightAware Approximate
12:54PM 19.8833 -155.1000 317° Northwest 270 311 7,600  Level Honolulu Center
12:55PM 20.0253 -155.2843 285° West  Level FlightAware Approximate
12:55PM 19.9333 -155.1667 309° West 280 322 10,000  Level Honolulu Center
12:56PM 20.0458 -155.3665 285° West  Level FlightAware Approximate
12:56PM 19.9833 -155.2333 309° West 310 357 11,500  Level Honolulu Center
12:57PM 20.0333 -155.3167 303° West 350 403 13,100 1,980 Climbing Honolulu Center
12:58PM 20.0833 -155.4167 298° West 350 403 15,500 2,340 Climbing Honolulu Center
12:59PM 20.1167 -155.5167 290° West 360 414 17,800 2,100 Climbing Honolulu Center
01:00PM 20.1667 -155.6167 298° West 370 426 19,700 1,800 Climbing Honolulu Center
01:01PM 20.2000 -155.7167 290° West 380 437 21,400 1,680 Climbing Honolulu Center
01:02PM 20.2500 -155.8167 298° West 400 460 23,200 1,860 Climbing Honolulu Center
01:03PM 20.2833 -155.9333 287° West 400 460 25,200 1,980 Climbing Honolulu Center
01:04PM 20.3333 -156.0500 295° West 410 472 27,200 1,380 Climbing Honolulu Center
01:05PM 20.3833 -156.1500 298° West 400 460 28,000 360 Climbing Honolulu Center
01:06PM 20.4333 -156.2667 295° West 400 460 28,000  Level Honolulu Center
01:07PM 20.4667 -156.3667 290° West 400 460 28,000  Level Honolulu Center
01:08PM 20.5167 -156.4667 298° West 400 460 28,000  Level Honolulu Center
01:09PM 20.5500 -156.5833 287° West 400 460 28,000  Level Honolulu Center
01:10PM 20.6000 -156.7000 295° West 400 460 28,000  Level Honolulu Center
01:11PM 20.6500 -156.8000 298° West 400 460 28,000 -1,140 Level Honolulu Center
01:12PM 20.6833 -156.9167 287° West 390 449 25,800 -2,520 Descending Honolulu Center
01:13PM 20.7333 -157.0167 298° West 380 437 23,000 -2,580 Descending Honolulu Center
01:14PM 20.7667 -157.1167 290° West 380 437 20,600 -2,340 Descending Honolulu Center
01:16PM 20.8500 -157.3167 294° West 350 403 16,100 -2,220 Descending Honolulu Center
01:17PM 20.8833 -157.4167 290° West 340 391 14,000 -2,100 Descending Honolulu Center
01:18PM 20.9333 -157.5000 303° West 330 380 11,900 -1,560 Descending Honolulu Center
01:19PM 20.9667 -157.5833 293° West 280 322 10,900 -1,680 Descending Honolulu Center
01:20PM 20.9833 -157.6500 285° West 280 322 8,600 -2,100 Descending Honolulu Center
01:21PM 21.0167 -157.7333 293° West 280 322 6,800 -1,680 Descending Honolulu Center
01:22PM 21.0333 -157.8167 282° West 280 322 5,300 -1,440 Descending Honolulu Center
01:23PM 21.0500 -157.9000 282° West 270 311 4,000 -1,320 Descending Honolulu Center